Location: Engelmannsreuth
(49.8125°N, 11.6497°E)
Time: 06:22:19
(UTC+00:00)

Cosmos 2369 Rocket - Pass Details

Date: 17 February 2020
Orbit: 827 x 854 km, 71.0° (Epoch: 28 March)

Event Time Altitude Azimuth Distance (km) Brightness Sun altitude
Exits shadow 04:49:25 - 327° (NNW) 3,068 4.8 -15.4°
Reaches altitude 10° 04:50:57 10° 324° (NW) 2,494 4.3 -15.1°
Maximum altitude 04:56:31 54° 249° (WSW) 1,033 2.3 -14.2°
Drops below altitude 10° 05:02:03 10° 173° (S) 2,478 4.8 -13.3°
Sets 05:04:32 0° 169° (S) 3,408 5.6 -12.9°
